KL1V-13 Weather Reports


Display with metric or nautical units.
time (UTC)temp
F
wind
direction
speed
MPH
gust
MPH
rain 1hr
in
rain 24hr
in
rain mn
in
humidity
%
barometer
mb
20260509232714 47 0.0 2.0 0.00 0.28 0.24 85 994.6
20260509231714 47 211 2.0 4.0 0.00 0.28 0.24 85 994.6
20260509230715 47 0.0 0.0 0.00 0.28 0.24 86 994.6
20260509225714 47 112 1.0 3.0 0.00 0.28 0.24 86 994.6
20260509224735 46 292 0.0 1.0 0.00 0.28 0.24 86 994.8
20260509223714 45 67 0.0 1.0 0.00 0.28 0.24 86 994.7
20260509222714 46 312 5.0 9.0 0.00 0.28 0.24 85 994.9
20260509221714 46 90 0.0 3.0 0.00 0.28 0.24 85 994.9
20260509220714 46 0.0 0.0 0.00 0.28 0.24 86 994.9
20260509215714 47 222 2.0 4.0 0.00 0.28 0.24 86 994.7
20260509214714 46 0.0 0.0 0.00 0.28 0.24 87 994.9
20260509213715 46 90 0.0 1.0 0.00 0.28 0.24 88 994.8
20260509212714 46 124 2.0 4.0 0.00 0.28 0.24 88 994.6
20260509211714 45 0.0 1.0 0.00 0.28 0.24 89 994.6
20260509210714 45 150 1.0 4.0 0.00 0.28 0.24 88 994.3
20260509205714 45 0.0 0.0 0.00 0.28 0.24 88 994.2
20260509204715 45 112 2.0 4.0 0.00 0.28 0.24 89 994.6
20260509203714 45 0.0 2.0 0.00 0.28 0.24 89 994.2
20260509202735 44 111 3.0 4.0 0.02 0.28 0.24 89 994.2
20260509201714 44 0.0 0.0 0.02 0.28 0.24 89 994.2
20260509200714 44 112 1.0 2.0 0.02 0.28 0.24 89 994.2
20260509195714 44 0.0 0.0 0.02 0.28 0.24 89 994.2
20260509194714 43 112 1.0 2.0 0.02 0.28 0.24 89 994.2
20260509193715 42 112 1.0 2.0 0.02 0.28 0.24 89 994.2
20260509192714 42 0.0 0.0 0.00 0.26 0.22 89 994.2
20260509191735 42 0.0 0.0 0.00 0.26 0.22 89 994.2
20260509190715 42 86 1.0 3.0 0.01 0.26 0.22 90 993.9
20260509185714 42 0.0 1.0 0.02 0.26 0.22 90 993.9
20260509184714 41 112 1.0 2.0 0.02 0.26 0.22 90 993.9
20260509183714 40 0.0 0.0 0.02 0.26 0.22 90 993.9
20260509182714 40 0.0 0.0 0.02 0.26 0.22 91 994.0
20260509181714 40 90 0.0 3.0 0.02 0.26 0.22 91 993.9
20260509180714 39 0.0 0.0 0.01 0.25 0.21 91 993.9
20260509175714 39 0.0 0.0 0.00 0.24 0.20 91 993.9
20260509174714 39 0.0 0.0 0.01 0.24 0.20 91 993.9
20260509173714 38 360 1.0 2.0 0.01 0.24 0.20 91 993.9
20260509172714 38 0.0 0.0 0.02 0.24 0.20 92 993.9
20260509171714 37 0.0 0.0 0.02 0.24 0.20 92 993.9
20260509170714 37 45 0.0 2.0 0.02 0.24 0.20 92 993.9
20260509165714 37 327 1.0 2.0 0.02 0.24 0.20 92 993.9
20260509164714 36 360 0.0 2.0 0.01 0.23 0.19 92 994.2
20260509163714 36 0.0 0.0 0.02 0.23 0.19 92 994.2
20260509162715 36 315 2.0 3.0 0.02 0.22 0.18 92 994.2
20260509161714 35 315 0.0 1.0 0.02 0.22 0.18 92 994.2
20260509160736 34 0.0 0.0 0.02 0.22 0.18 92 994.2
20260509155735 34 0.0 0.0 0.03 0.22 0.18 92 994.2
20260509154714 33 0.0 0.0 0.04 0.22 0.18 92 994.2
20260509153715 33 0.0 0.0 0.03 0.21 0.17 92 994.2
20260509152714 33 0.0 0.0 0.02 0.20 0.16 92 994.3
20260509151735 33 0.0 0.0 0.02 0.20 0.16 92 994.2
20260509150735 33 0.0 0.0 0.03 0.20 0.16 92 994.2
20260509145714 33 0.0 0.0 0.03 0.19 0.15 92 994.2
20260509144714 33 0.0 0.0 0.02 0.18 0.14 92 994.6
20260509143714 32 0.0 0.0 0.02 0.18 0.14 92 994.6
20260509142715 32 0.0 0.0 0.02 0.18 0.14 92 994.6
20260509141716 33 0.0 0.0 0.02 0.18 0.14 92 994.6
20260509140714 33 0.0 0.0 0.01 0.17 0.13 92 994.6
20260509135714 33 0.0 0.0 0.00 0.16 0.12 91 994.9
20260509134714 33 0.0 0.0 0.01 0.16 0.12 91 994.9
20260509133714 33 0.0 0.0 0.02 0.16 0.12 91 994.9
20260509132715 33 0.0 0.0 0.02 0.16 0.12 91 994.9
20260509131714 33 0.0 0.0 0.02 0.16 0.12 91 995.3
20260509130734 33 0.0 0.0 0.02 0.16 0.12 91 995.3
20260509125714 33 0.0 0.0 0.02 0.16 0.12 91 995.3
20260509124734 33 0.0 0.0 0.02 0.15 0.11 91 995.6
20260509123715 33 0.0 0.0 0.02 0.14 0.10 91 995.6
20260509122715 33 0.0 0.0 0.02 0.14 0.10 91 995.7
20260509121715 34 0.0 0.0 0.03 0.14 0.10 91 995.9
20260509120735 34 0.0 0.0 0.04 0.14 0.10 91 995.9
20260509115714 34 0.0 0.0 0.04 0.14 0.10 91 996.3
20260509114714 34 0.0 0.0 0.03 0.13 0.09 91 996.6
20260509113735 34 0.0 0.0 0.02 0.12 0.08 91 996.6
20260509112714 35 0.0 0.0 0.03 0.12 0.08 91 996.6
20260509111714 35 0.0 0.0 0.03 0.11 0.07 91 996.6
20260509110714 35 0.0 0.0 0.02 0.11 0.06 91 997.0
20260509105714 35 0.0 0.0 0.02 0.11 0.06 91 997.0
20260509104715 35 0.0 0.0 0.03 0.11 0.06 91 997.3
20260509103714 35 0.0 0.0 0.04 0.11 0.06 91 997.6
20260509102715 35 0.0 0.0 0.03 0.11 0.05 91 997.6
20260509101715 35 0.0 0.0 0.02 0.10 0.04 91 997.7
20260509100714 35 0.0 0.0 0.02 0.10 0.04 91 998.0
20260509095715 36 0.0 0.0 0.03 0.10 0.04 91 998.0
20260509094714 36 0.0 0.0 0.02 0.09 0.03 91 998.3
20260509093715 36 0.0 0.0 0.02 0.08 0.02 91 998.6
20260509092714 36 0.0 0.0 0.02 0.08 0.02 91 998.4
20260509091715 36 0.0 0.0 0.02 0.08 0.02 90 998.7
20260509090715 36 0.0 0.0 0.02 0.08 0.02 90 999.0
20260509085714 36 0.0 0.0 0.01 0.07 0.01 90 999.0
20260509084714 36 0.0 0.0 0.01 0.07 0.01 90 999.3
20260509083715 36 0.0 0.0 0.01 0.06 0.00 90 999.7
20260509082715 36 0.0 0.0 0.01 0.06 0.00 90 999.7
20260509081734 36 0.0 0.0 0.01 0.06 0.00 90 999.7
20260509080716 36 0.0 0.0 0.02 0.06 0.00 89 1000.0
20260509075714 36 0.0 0.0 0.02 0.06 0.06 89 1000.0
20260509074714 36 0.0 0.0 0.02 0.06 0.06 89 1000.4
20260509073716 36 0.0 0.0 0.01 0.05 0.05 89 1000.4
20260509072715 36 0.0 0.0 0.01 0.05 0.05 89 1000.7
20260509071714 37 0.0 0.0 0.01 0.05 0.05 88 1000.7
20260509070714 37 0.0 0.0 0.00 0.04 0.04 88 1000.7
20260509065735 37 0.0 0.0 0.00 0.04 0.04 88 1001.0
20260509064755 37 0.0 0.0 0.00 0.04 0.04 88 1001.0
20260509063715 37 0.0 0.0 0.01 0.04 0.04 88 1001.4
20260509062714 37 0.0 0.0 0.01 0.04 0.04 88 1001.4
20260509061716 38 315 1.0 3.0 0.01 0.04 0.04 88 1001.4
20260509060714 38 0.0 0.0 0.01 0.04 0.04 88 1001.4
20260509055714 38 0.0 0.0 0.01 0.04 0.04 88 1001.4
20260509054715 38 0.0 0.0 0.02 0.04 0.04 88 1001.7
20260509053714 39 0.0 0.0 0.01 0.03 0.03 87 1001.7
20260509052715 39 0.0 0.0 0.01 0.03 0.03 87 1002.1
20260509051714 39 0.0 0.0 0.01 0.03 0.03 87 1002.1
20260509050714 39 0.0 0.0 0.01 0.03 0.03 86 1002.1
20260509045734 40 0.0 0.0 0.01 0.03 0.03 86 1002.1
20260509044714 40 0.0 0.0 0.00 0.02 0.02 85 1002.1
20260509043715 40 0.0 0.0 0.00 0.02 0.02 84 1002.4
20260509042734 40 0.0 0.0 0.00 0.02 0.02 83 1002.7
20260509041714 40 0.0 0.0 0.00 0.02 0.02 82 1002.7
20260509040714 41 0.0 0.0 0.00 0.02 0.02 80 1003.1
20260509035715 41 337 0.0 1.0 0.00 0.02 0.02 78 1003.1
20260509034715 42 351 1.0 2.0 0.00 0.02 0.02 75 1003.1
20260509033714 43 337 0.0 2.0 0.00 0.02 0.02 74 1003.1
20260509032734 43 0.0 0.0 0.00 0.02 0.02 73 1003.4
20260509031714 43 315 1.0 3.0 0.00 0.02 0.02 72 1003.4
20260509030714 43 341 4.0 5.0 0.00 0.02 0.02 72 1003.4
20260509025714 43 15 2.0 4.0 0.00 0.02 0.02 73 1003.4
20260509024715 44 322 3.0 6.0 0.00 0.02 0.02 72 1003.8
20260509023735 44 22 0.0 2.0 0.00 0.02 0.02 71 1003.8
20260509022714 45 323 4.0 8.0 0.00 0.02 0.02 69 1003.8
20260509021756 45 127 1.0 3.0 0.00 0.02 0.02 66 1004.1
20260509020714 45 90 0.0 2.0 0.00 0.02 0.02 65 1004.1
20260509015714 46 109 1.0 3.0 0.00 0.02 0.02 64 1004.1
20260509014714 47 122 2.0 4.0 0.00 0.02 0.02 63 1004.1
20260509013714 46 0.0 0.0 0.00 0.02 0.02 62 1004.1
20260509012756 47 204 1.0 4.0 0.00 0.02 0.02 62 1004.4
20260509011715 47 202 0.0 1.0 0.00 0.02 0.02 61 1004.4
20260509010714 48 225 0.0 2.0 0.00 0.02 0.02 60 1004.8
20260509005715 48 0.0 0.0 0.00 0.02 0.02 60 1004.8
20260509004715 48 206 1.0 2.0 0.00 0.02 0.02 60 1004.8
20260509003714 48 182 1.0 4.0 0.00 0.02 0.02 59 1004.8
20260509002714 49 225 1.0 3.0 0.00 0.02 0.02 59 1005.1
20260509001736 49 218 2.0 4.0 0.00 0.02 0.02 59 1005.5
20260509000714 49 95 2.0 4.0 0.00 0.02 0.02 59 1005.5
20260508235755 49 128 5.0 10.0 0.00 0.02 0.02 59 1005.5
20260508234714 48 94 2.0 3.0 0.00 0.02 0.02 60 1005.6
20260508233714 48 75 2.0 4.0 0.00 0.02 0.02 59 1005.8